Location: Muenchen
(48.1800°N, 11.5800°E)
Time: 09:53:56
(UTC+02:00)

Iridium 36 - Visible Passes

Search period start: 28 May 2018 00:00
Search period end: 07 June 2018 00:00
Orbit: 771 x 774 km, 86.4° (Epoch: 27 May)

Date Brightness Start Highest point End Pass type
(mag) Time Alt. Az. Time Alt. Az. Time Alt. Az.
28 May 8.7 22:26:31 10° W 22:28:07 11° WNW 22:29:43 10° NW visible
29 May 8.3 21:48:57 10° WSW 21:52:41 20° WNW 21:56:27 10° NNW visible
01 Jun 8.5 21:45:31 10° WSW 21:48:37 16° WNW 21:51:43 10° NNW visible
04 Jun 8.8 21:42:28 10° W 21:44:34 12° WNW 21:46:41 10° NW visible
